User: anonymous   Login
Location: Unspecified
(0.0000°N, 0.0000°E)
Time: 01:09:16
(UTC+00:00)
Language:

GALILEO-FM4 - Orbit

View from above orbital plane
View from above orbital plane
View from above satellite
View from above satellite

Ground track
Ground track

The orbit data is extracted from the following two-line orbital elements,

1 38858U 12055B   17294.30598068  .00000006  00000-0  00000+0 0  9992
2 38858  54.9041 188.5425 0001401 248.9304 111.1375  1.70473957 31226
Epoch (UTC): 21 October 2017 07:20:36
Eccentricity: 0.0001401
inclination: 54.9041°
perigee height: 23218 km
apogee height: 23226 km
right ascension of ascending node: 188.5425°
argument of perigee: 248.9304°
revolutions per day: 1.70473957
mean anomaly at epoch: 111.1375°
orbit number at epoch: 3122

The dashed part of the orbit path shows where the satellite is in the earth's shadow,  

DLR